This is the latest recevied weather packets stored in our database for station/object SP2TMT-10. If no packets are shown the sender has not sent any weather packets the latest 10 day(s).
| Time | Temp. | Humidity | Pressure | Rain* | Wind** | Luminosity | Snow |
|---|---|---|---|---|---|---|---|
| 1777479924 | 20.56° C | 38% | 1028.7 hPa | - | - | - | - |
| 1777479024 | 20° C | 38% | 1028.8 hPa | - | - | - | - |
| 1777478124 | 20° C | 39% | 1028.7 hPa | - | - | - | - |
| 1777477224 | 20° C | 40% | 1028.7 hPa | - | - | - | - |
| 1777476324 | 20° C | 41% | 1028.8 hPa | - | - | - | - |
| 1777475419 | 20° C | 41% | 1028.8 hPa | - | - | - | - |
| 1777474519 | 20° C | 41% | 1028.8 hPa | - | - | - | - |
| 1777473619 | 20.56° C | 43% | 1028.9 hPa | - | - | - | - |
| 1777472719 | 20° C | 43% | 1028.8 hPa | - | - | - | - |
| 1777471819 | 20° C | 42% | 1028.8 hPa | - | - | - | - |
| 1777470918 | 20° C | 41% | 1028.9 hPa | - | - | - | - |
| 1777470018 | 20° C | 38% | 1028.9 hPa | - | - | - | - |
| 1777469118 | 20° C | 38% | 1028.9 hPa | - | - | - | - |
| 1777468218 | 20° C | 38% | 1029 hPa | - | - | - | - |
| 1777467318 | 20° C | 38% | 1028.9 hPa | - | - | - | - |
| 1777466418 | 20° C | 35% | 1029.1 hPa | - | - | - | - |
| 1777465518 | 20° C | 36% | 1029.1 hPa | - | - | - | - |
| 1777464618 | 20° C | 36% | 1029.1 hPa | - | - | - | - |
| 1777463718 | 20° C | 37% | 1029 hPa | - | - | - | - |
| 1777462818 | 20° C | 39% | 1029.1 hPa | - | - | - | - |
| 1777461912 | 20° C | 38% | 1029.2 hPa | - | - | - | - |
| 1777461012 | 20° C | 39% | 1029.1 hPa | - | - | - | - |
| 1777460112 | 20° C | 37% | 1029.3 hPa | - | - | - | - |
| 1777459212 | 20° C | 38% | 1029.3 hPa | - | - | - | - |
| 1777458312 | 20° C | 40% | 1029.2 hPa | - | - | - | - |
* Rain since midnight (hover to see other rain measurements)
** Current wind speed in m/s (hover to see current wind gust speed)